Tracking 18840 objects as of 19-November-2017
HD Live streaming from Space Station
objects crossing your sky now

FENGYUN 1C DEB

Track FENGYUN 1C DEB now!
10-day predictions


NORAD ID: 32318
Int'l Code: 1999-025CXK
Perigee: 537.3 km
Apogee: 565.0 km
Inclination: 97.3 °
Period: 95.5 minutes
Semi major axis: 6922 km
RCS: 0.0128 m2 (small)
Launch date: May 10, 1999
Source: People's Republic of China (PRC)
Launch site: Taiyaun Space Center, China (TSC)

Note: This is SATELLITE DEBRIS
aabbcc
Your satellite tracking list
Your tracking list is empty




NASA's NSSDC Master Catalog

Two Line Element Set (TLE):
1 32318U 99025CXK 17321.49359409 +.00023263 +00000-0 +15279-2 0  9991
2 32318 097.3275 219.5452 0020023 122.9813 237.3343 15.07452853190143
Source of the keplerian elements: AFSPC